User: anonymous   Login
Location: Baix
(44.7118°N, 4.7648°E)
Time: 02:24:02
(UTC+00:00)
Language:

A-11 Canister half - Orbit

View from above orbital plane
View from above orbital plane
View from above satellite
View from above satellite

Ground track
Ground track

The orbit data is extracted from the following two-line orbital elements,

1 00051U 60009C   21138.14691395 -.00000096  00000-0 -95219-4 0  9991
2 00051  47.2150  31.9636 0107353  77.2296 284.0465 12.18275352704890
Epoch (UTC): 18 May 2021 03:31:33
Eccentricity: 0.0107353
inclination: 47.2150°
perigee height: 1514 km
apogee height: 1686 km
right ascension of ascending node: 31.9636°
argument of perigee: 77.2296°
revolutions per day: 12.18275352
mean anomaly at epoch: 284.0465°
orbit number at epoch: 70489

The dashed part of the orbit path shows where the satellite is in the earth's shadow,  

DLR